GW3042 Weather Reports


time (UTC)temp
F
wind
direction
speed
knots
gust
knots
rain 1hr
in
rain 24hr
in
rain mn
in
humidity
%
barometer
mb
20260505223101 53 29 0.0 0.9 0.00 0.39 0.00 93 1012.4
20260505221550 53 29 0.0 1.7 0.01 0.39 0.00 93 1012.6
20260505220055 53 29 0.0 1.7 0.02 0.39 0.39 93 1012.7
20260505214536 53 29 0.9 1.7 0.02 0.39 0.39 93 1012.8
20260505213019 53 29 0.0 1.7 0.02 0.39 0.39 93 1013.1
20260505211509 53 29 0.0 1.7 0.02 0.39 0.39 93 1013.2
20260505204551 54 29 0.0 0.9 0.00 0.37 0.37 92 1013.3
20260505203041 53 29 0.0 1.7 0.00 0.37 0.37 92 1013.2
20260505201531 53 29 0.0 0.0 0.00 0.37 0.37 92 1013.2
20260505200018 53 29 0.9 2.6 0.00 0.37 0.37 92 1013.2
20260505194520 53 29 0.0 3.5 0.00 0.37 0.37 92 1013.2
20260505193059 53 29 0.9 2.6 0.00 0.37 0.37 92 1013.1
20260505191555 53 29 0.0 1.7 0.00 0.37 0.37 92 1013.0
20260505190032 53 29 0.0 1.7 0.00 0.37 0.37 91 1012.9
20260505184519 53 29 0.0 2.6 0.01 0.37 0.37 91 1012.8
20260505183007 53 29 0.9 5.2 0.01 0.37 0.37 91 1012.7
20260505181554 53 26 0.0 2.6 0.01 0.37 0.37 91 1012.7
20260505180052 54 30 0.9 3.5 0.01 0.37 0.37 90 1012.7
20260505174540 54 29 0.9 5.2 0.00 0.36 0.36 90 1012.9
20260505173022 54 104 0.0 2.6 0.00 0.36 0.36 89 1012.8
20260505171515 54 36 0.0 3.5 0.00 0.36 0.36 88 1012.9
20260505170001 54 36 0.0 4.3 0.00 0.36 0.36 88 1012.9
20260505164553 55 48 0.0 2.6 0.00 0.36 0.36 88 1012.9
20260505163044 55 40 0.0 2.6 0.00 0.36 0.36 88 1012.8
20260505161531 55 38 1.7 6.1 0.00 0.36 0.36 87 1012.9
20260505153100 55 27 0.0 3.5 0.00 0.36 0.36 87 1012.9
20260505151552 55 26 0.0 2.6 0.00 0.36 0.36 87 1012.9
20260505124600 55 21 0.0 3.5 0.00 0.36 0.36 87 1013.5
20260505123106 56 21 0.0 2.6 0.00 0.36 0.36 86 1013.6
20260505121537 56 21 0.0 2.6 0.00 0.36 0.36 86 1013.6
20260505120029 55 21 0.9 3.5 0.00 0.36 0.36 85 1013.6
20260505114515 56 314 0.0 1.7 0.00 0.36 0.36 86 1013.6
20260505113005 56 31 0.0 2.6 0.00 0.36 0.36 87 1013.6
20260505111606 56 36 0.0 3.5 0.00 0.36 0.36 87 1013.7
20260505101514 55 42 0.0 6.1 0.02 0.36 0.36 91 1014.0
20260505100001 54 43 0.0 6.1 0.02 0.36 0.36 91 1013.9
20260505094551 54 42 1.7 7.0 0.05 0.36 0.36 92 1013.8
20260505093038 53 31 0.9 7.8 0.07 0.35 0.35 92 1013.7
20260505091532 53 46 0.9 4.3 0.13 0.35 0.35 92 1013.9
20260505090014 53 19 0.0 6.1 0.19 0.34 0.34 92 1013.7
20260505084507 53 324 0.0 2.6 0.21 0.31 0.31 92 1013.8
20260505083107 53 40 0.9 4.3 0.21 0.28 0.28 91 1013.9
20260505081552 53 52 0.0 6.1 0.18 0.22 0.22 90 1013.8
20260505080038 53 45 2.6 7.0 0.13 0.15 0.15 89 1013.7
20260505074519 54 37 0.0 1.7 0.09 0.10 0.10 89 1013.7
20260505073014 54 34 0.9 3.5 0.07 0.07 0.07 88 1013.6
20260505071604 54 35 0.9 3.5 0.04 0.04 0.04 87 1013.6
20260505070052 54 40 0.0 1.7 0.02 0.02 0.02 85 1013.6
20260505064553 55 36 1.7 3.5 0.01 0.01 0.01 83 1013.6
20260505063028 56 34 2.6 7.0 0.00 0.00 0.00 81 1013.6
20260505061529 56 44 0.0 3.5 0.00 0.00 0.00 79 1013.5
20260505060006 56 346 0.9 7.0 0.00 0.00 0.00 78 1013.3
20260505054606 57 25 0.0 3.5 0.00 0.00 0.00 76 1013.2
20260505053055 57 54 1.7 7.8 0.00 0.00 0.00 73 1013.0
20260505051537 57 41 1.7 6.1 0.00 0.00 0.00 71 1012.6
20260505041613 55 154 0.0 1.7 0.00 0.00 0.00 76 1012.5
20260505040047 55 154 0.0 0.0 0.00 0.00 0.00 76 1012.3
20260505034535 55 154 0.0 0.0 0.00 0.00 0.00 75 1012.3
20260505033103 55 154 0.0 1.7 0.00 0.00 0.00 74 1012.6
20260505031601 56 154 0.0 0.0 0.00 0.00 0.00 75 1012.7
20260505030042 56 154 0.0 0.0 0.00 0.00 0.00 74 1012.8
20260505024541 56 154 0.0 1.7 0.00 0.00 0.00 73 1013.0
20260505023019 56 154 0.0 0.0 0.00 0.00 0.00 73 1013.2
20260505021509 56 154 0.0 0.0 0.00 0.00 0.00 72 1013.3
20260505014551 56 154 0.0 0.0 0.00 0.00 0.00 72 1013.4
20260505013040 56 154 0.0 0.0 0.00 0.00 0.00 70 1013.7
20260505011533 57 154 0.0 0.0 0.00 0.00 0.00 70 1013.8
20260505010019 57 154 0.0 0.0 0.00 0.00 0.00 69 1013.9
20260505004507 57 154 0.0 0.0 0.00 0.00 0.00 69 1014.3
20260505003100 57 154 0.0 0.0 0.00 0.00 0.00 69 1014.4
20260505001553 58 154 0.0 0.0 0.00 0.00 0.00 67 1014.7
20260505000042 58 154 0.0 1.7 0.00 0.00 0.00 67 1014.7
20260504234528 58 154 0.9 5.2 0.00 0.00 0.00 67 1014.9
20260504233022 58 129 2.6 7.0 0.00 0.00 0.00 66 1015.0
20260504231522 59 142 2.6 6.1 0.00 0.00 0.00 65 1015.1
20260504230100 60 146 2.6 7.8 0.00 0.00 0.00 63 1015.1
20260504224550 59 167 4.3 8.7 0.00 0.00 0.00 63 1015.4